Home   Weather   Qyzylorda   Past weeks

Flag for Kazakhstan Past Weather in Qyzylorda, Kazakhstan — Yesterday and Last 2 Weeks

Now
72 °F

Passing clouds.


Feels Like: 76 °F
Forecast: 54 / 60 °F
Wind: 8 mph from West

Location: Kzyl-Orda

Current Time: Sep 28, 2016 at 12:55:26 PM

Latest Report: Sep 28, 2016 at 12:00 PM


Visibility: N/A

Pressure: 29.98 "Hg

Humidity: 25%

Dew Point: 34 °F

Location of QyzylordaLocation

Past Weather in Qyzylorda — Graph

°F

Qyzylorda Temperature Yesterday

Maximum temperature yesterday: 84 °F (at 3:00 PM)
Minimum temperature yesterday: 55 °F (at 5:00 AM)
Average temperature yesterday: 70 °F

High & Low Weather Summary for the Past Weeks

 TemperatureHumidityPressure
High95 °F (Sep 16, 4:30 PM)87% (Sep 17, 6:30 AM)30.09 "Hg (Sep 17, 6:30 AM)
Low43 °F (Sep 14, 6:30 AM)10% (Sep 16, 2:00 PM)29.56 "Hg (Sep 16, 4:30 PM)
Average68 °F34%29.92 "Hg
* Reported Sep 13 11:00 AM — Sep 28 11:30 AM, Qyzylorda, Weather by CustomWeather, © 2016

Note: Actual official high and low records may vary slightly from our data, if they occured in-between our weather recording intervals... More about our weather records

Advertising

Qyzylorda Weather History for the Previous 24 Hours

Scroll right to see more
 ConditionsComfort  
Time TempWeatherWind HumidityBarometerVisibility
11:30 AM
Wed, Sep 28
70 °FPassing clouds.8 mph27%29.98 "HgN/A
11:00 AM66 °FPassing clouds.6 mph30%29.95 "HgN/A
10:30 AM64 °FSunny.6 mph32%29.95 "Hg10 mi
10:00 AM59 °FSunny.6 mph39%29.95 "Hg10 mi
9:30 AM57 °FSunny.6 mph39%29.95 "Hg10 mi
9:00 AM52 °FSunny.8 mph47%29.95 "Hg10 mi
8:30 AM50 °FClear.8 mph50%29.95 "Hg10 mi
8:00 AM46 °FClear.6 mph57%29.92 "Hg10 mi
7:30 AM46 °FClear.6 mph57%29.92 "Hg10 mi
7:00 AM48 °FClear.6 mph58%29.92 "Hg10 mi
6:30 AM48 °FClear.6 mph54%29.92 "Hg10 mi
6:00 AM50 °FClear.3 mph50%29.89 "Hg10 mi
5:30 AM50 °FClear.3 mph50%29.89 "Hg10 mi
5:00 AM52 °FClear.6 mph47%29.89 "Hg10 mi
4:00 AM52 °FClear.6 mph50%29.89 "Hg10 mi
3:00 AM55 °FClear.6 mph44%29.89 "Hg10 mi
2:00 AM55 °FClear.6 mph47%29.89 "Hg10 mi
1:00 AM59 °FClear.6 mph45%29.89 "Hg10 mi
12:00 AM61 °FClear.6 mph48%29.89 "Hg10 mi
11:00 PM
Tue, Sep 27
63 °FClear.6 mph49%29.89 "Hg10 mi
10:00 PM64 °FClear.6 mph46%29.89 "Hg10 mi
9:00 PM68 °FPassing clouds.3 mph38%29.86 "HgN/A
8:00 PM73 °FSunny.1 mph31%29.86 "Hg10 mi
7:30 PM73 °FSunny.3 mph31%29.86 "Hg10 mi
7:00 PM79 °FSunny.6 mph24%29.83 "Hg10 mi
6:30 PM81 °FSunny.8 mph21%29.83 "Hg10 mi
6:00 PM82 °FPassing clouds.3 mph17%29.83 "HgN/A
5:30 PM84 °FPassing clouds.3 mph16%29.83 "HgN/A
5:00 PM84 °FPassing clouds.3 mph15%29.83 "HgN/A
4:30 PM84 °FPassing clouds.3 mph15%29.83 "HgN/A
4:00 PM84 °FPassing clouds.3 mph14%29.83 "HgN/A
3:30 PM82 °FPassing clouds.3 mph15%29.86 "HgN/A
3:00 PM84 °FSunny.1 mph13%29.86 "Hg10 mi
2:30 PM82 °FSunny.1 mph13%29.86 "Hg10 mi
2:00 PM82 °FSunny.1 mph16%29.86 "Hg10 mi
1:30 PM82 °FSunny.1 mph16%29.86 "Hg10 mi
1:00 PM79 °FSunny.1 mph21%29.86 "Hg10 mi
12:30 PM79 °FSunny.1 mph21%29.89 "Hg10 mi
12:00 PM75 °FSunny.1 mph22%29.89 "Hg10 mi
Weather by CustomWeather, © 2016

See weather overviewHow to use our weather pages